Location: Mohawk View
(42.7837°N, 73.7885°W)
Time: 12:50:46
(UTC+00:00)

Cosmos 1656 Rocket - Pass Details

Date: 17 June 2021
Orbit: 794 x 847 km, 71.1° (Epoch: 30 July)

Event Time Altitude Azimuth Distance (km) Brightness Sun altitude
Rises 06:26:44 0° 337° (NNW) 3,418 7.5 -20.6°
Reaches altitude 10° 06:29:13 10° 340° (NNW) 2,479 6.8 -20.4°
Maximum altitude 06:34:55 71° 64° (ENE) 895 3.9 -20.0°
Enters shadow 06:39:44 14° 147° (SSE) 2,153 5.5 -19.7°
